Regional Weather Roundup
Issued by NWS Midland/Odessa, TX

Home | Current Version | Previous Version | Text Only | Print | Product List | Glossary On
Versions: 1 2 3 4 5 6 7 8 9 10 11 12 13 14 15 16 17 18 19 20 21 22 23 24 25 26 27 28 29 30 31 32 33 34 35 36 37 38 39 40 41 42 43 44 45 46 47 48 49 50
000
ASUS44 KMAF 201110
RWRMAF
MIDLAND AREA WEATHER ROUNDUP
NATIONAL WEATHER SERVICE MIDLAND TX
600 AM CDT SUN AUG 20 2017

...IN SOUTHWEST TEXAS AND SOUTHEAST NEW MEXICO...

CITY           SKY/WX    TMP DP  RH WIND       PRES   REMARKS
ALPINE         CLEAR     67  59  75 SW5       30.17S
ANDREWS        FAIR      72  62  69 CALM      30.07R
ARTESIA        MOCLDY    70  70 100 S6        30.04S
BIG SPRING     CLEAR     73  62  68 CALM      30.05S
CARLSBAD       PTCLDY    70  70 100 CALM      30.02S
DRYDEN           N/A     73  63  70 CALM      29.98S
FORT STOCKTON  MOCLDY    74  60  61 S9        30.02S
GUAD PASS      CLOUDY    68  59  73 SW6       30.18F
HOBBS          MOCLDY    70  63  78 E6        30.08S
MARFA          CLEAR     61  57  87 CALM      30.17R
MIDLAND AIRPK  CLEAR     76  61  59 CALM      30.04S
MIDLAND INTL   CLEAR     74  63  68 SE3       30.03S
ODESSA         PTCLDY    74  64  71 E6        30.04S
PECOS          CLOUDY    72  68  87 NE3       29.99S
PRESIDIO       FAIR      73  63  68 CALM      30.04S
SEMINOLE       CLOUDY    66  61  83 NE3       30.08F
SNYDER         CLEAR     71  65  79 S5        30.03S
WINK           CLOUDY    76  62  62 E8        30.00S
$$
...OTHER STATIONS IN TEXAS...

CITY           SKY/WX    TMP DP  RH WIND       PRES   REMARKS
ABILENE        CLEAR     74  65  73 S7        30.01R
AMARILLO       PTCLDY    68  61  78 SW15      30.05F
AUSTIN         PTCLDY    79  75  87 SW7       29.97S
BROWNSVILLE    CLEAR     78  78 100 SE3       29.93F
CORPUS CHRISTI PTCLDY    76  75  97 S3        29.95S
DALLAS FTW     PTCLDY    82  70  66 S9        29.93S
DEL RIO        CLEAR     80  70  71 E8        29.96R
EL PASO        CLOUDY    69  64  84 N6        30.06F
HOUSTON INT    PTCLDY    77  75  93 CALM      29.97S
LUBBOCK        PTCLDY    69  61  75 SW6       30.04F
SAN ANGELO     CLEAR     77  64  64 S10       30.00S
SAN ANTONIO    PTCLDY    78  73  84 S6        30.00S
WACO           CLEAR     77  69  76 S7        29.96S
WICHITA FALLS  NOT AVBL
$$
...OTHER LOCATIONS IN NEW MEXICO...

CITY           SKY/WX    TMP DP  RH WIND       PRES   REMARKS
ALAMOGORDO     CLOUDY    68  57  68 NW6       30.10F
ALBUQUERQUE    CLOUDY    71  48  43 CALM      30.14F
CANNON AFB     CLOUDY    65  65 100 S6        30.11S
CLOVIS         CLOUDY    65  62  90 S8        30.11F
HOLLOMAN AFB   CLOUDY    69  57  65 CALM      30.10F
ROSWELL        CLOUDY    73  62  68 CALM      30.04R
RUIDOSO        CLOUDY    59  52  77 CALM      30.26F
SANTA FE       CLOUDY    61  48  62 NE7       30.20F
TRUTH OR CONSE CLOUDY    72  54  53 CALM      30.10R
TUCUMCARI      PTCLDY    67  57  70 SW6       30.05S
$$




USA.gov is the U.S. government's official web portal to all federal, state and local government web resources and services.